Location: Fort Worth, Tx
(32.7431°N, 97.3695°W)
Time: 02:41:25
(UTC-04:00)

ISS - Visible Passes

Search period start: 20 October 2021 00:00
Search period end: 30 October 2021 00:00
Orbit: 417 x 423 km, 51.6° (Epoch: 20 October)

Date Brightness Start Highest point End Pass type
(mag) Time Alt. Az. Time Alt. Az. Time Alt. Az.
20 Oct -1.0 07:07:02 10° S 07:09:24 18° SE 07:11:46 10° E visible
21 Oct -3.7 07:55:27 10° WSW 07:58:46 58° NW 08:02:05 10° NE visible
22 Oct -3.6 07:10:49 49° SSW 07:11:33 71° SE 07:14:54 10° NE visible
23 Oct -0.9 06:26:19 18° ENE 06:26:19 18° ENE 06:27:29 10° ENE visible
23 Oct -2.1 07:59:21 13° WNW 08:01:16 19° NW 08:03:47 10° NNE visible
24 Oct -2.4 07:14:39 28° NNW 07:14:39 28° NNW 07:16:56 10° NNE visible
25 Oct -0.6 06:29:47 11° NE 06:29:47 11° NE 06:29:54 10° NE visible
26 Oct -1.1 07:17:46 11° N 07:17:46 11° N 07:18:00 10° N visible
